Location: Shell Point
(30.0571°N, 84.2896°W)
Time: 18:14:44
(UTC-04:00)

Daily predictions for brighter satellites

Satellite Brightness Start Highest point End
(mag) Time Altitude Azimuth Time Altitude Azimuth Time Altitude Azimuth
SPOT 3 Rocket 4.3 19:19:02 10° SE 19:23:34 32° ENE 19:28:09 10° N
Ariane Rocket 3.6 19:18:49 10° S 19:23:51 64° WSW 19:28:55 10° NNW
SL-8 Rocket 4.0 19:19:09 10° S 19:25:19 83° E 19:31:32 10° N
Cosmos 1076 Rocket 4.0 19:21:09 10° NNW 19:25:23 66° W 19:29:34 10° S
NOSS 3 (A) 4.4 19:29:43 10° SSW 19:32:29 57° ESE 19:35:14 10° NE
Cosmos 1833 4.3 19:29:19 10° S 19:34:55 58° ESE 19:40:28 10° NNE
Cosmos 2056 Rocket 3.8 19:33:42 10° N 19:38:48 46° ENE 19:43:46 10° SE
Cosmos 2360 Rocket 3.4 19:36:59 10° NNE 19:41:12 21° ENE 19:45:25 10° ESE
Cosmos 2058 3.8 19:38:54 10° NNE 19:42:30 28° E 19:46:05 10° SE
Cosmos 1980 Rocket 3.9 19:37:31 10° NW 19:42:44 39° WSW 19:47:58 10° S
Cosmos 2218 Rocket 4.1 19:39:07 10° S 19:45:16 81° W 19:51:26 10° N
COSMO-SKYMED 1 2.8 19:42:01 10° N 19:46:21 76° WNW 19:50:39 10° SSW
RESURS DK-1 4.2 19:44:46 10° NNE 19:46:33 12° ENE 19:47:05 12° ENE
Cosmos 2322 Rocket 2.2 19:41:57 10° NNW 19:47:32 65° ENE 19:53:06 10° SSE
Cosmos 1626 2.4 19:45:42 10° N 19:49:17 45° E 19:52:52 10° SSE
BREEZE-M DEB (TANK) 3.8 19:48:18 10° W 19:50:07 18° NW 19:51:38 10° N
SL-8 R/B 4.4 19:46:20 10° WSW 19:51:01 52° NW 19:55:44 10° NE
GPS 2-05 Rocket1 4.5 19:48:58 10° W 19:51:59 30° SSW 19:55:03 10° SE
Meteor 1-11 4.2 19:48:38 10° N 19:54:25 76° E 20:00:06 10° SSE
Cosmos 1408 Rocket 4.4 19:51:10 10° NNW 19:55:32 56° W 19:59:53 10° S
NOSS 3-4 (A) 4.3 19:48:52 10° NW 19:56:04 70° WSW 20:03:43 10° SSE
NOSS 3-4 (C) 4.3 19:48:58 10° NW 19:56:11 71° WSW 20:03:51 10° SSE
Cosmos 1452 Rocket 4.5 19:52:19 10° NNE 19:56:37 25° ENE 20:00:14 13° ESE
OAO 1 Rocket 4.4 19:51:57 10° WSW 19:57:15 87° SSE 20:01:21 17° ENE
USA 267 3.2 19:51:33 10° NE 19:58:04 70° SE 20:04:33 10° SSW
Centaur AC-112 3.4 19:49:20 10° WSW 19:59:20 52° S 20:01:27 19° ESE
Atlas Centaur 2 2.0 19:55:13 10° W 20:00:05 86° N 20:04:34 19° E
MONITOR-E 4.4 19:58:27 10° S 20:01:30 71° W 20:04:35 10° NNW
Cosmos 1727 Rocket 4.0 19:57:20 10° N 20:03:41 70° E 20:09:58 10° SSE
YAOGAN 1 3.9 20:01:29 10° S 20:05:37 44° W 20:09:45 10° NNW
Cosmos 1339 Rocket 4.4 19:59:57 10° N 20:06:17 77° E 20:12:29 10° S
ALOS 2.2 20:02:24 10° SSE 20:06:59 61° ENE 20:11:36 10° N
CZ-4C R/B 2.5 20:04:43 10° S 20:09:12 35° ESE 20:12:18 19° ENE
FENGYUN 3A 3.6 20:06:15 10° SSE 20:11:34 66° ENE 20:16:55 10° N
Skynet4D Del rocket 4.5 20:05:28 10° WSW 20:12:20 65° S 20:17:27 23° E
CZ-4 R/B 4.2 20:09:46 10° SSW 20:13:06 23° W 20:16:26 10° NW
GP-B 4.4 20:12:48 10° NNW 20:17:00 43° W 20:21:12 10° SSW
Cosmos 1703 3.2 20:15:09 10° N 20:19:05 87° W 20:22:58 10° S
Cosmos 1400 Rocket 3.6 20:24:24 10° NNW 20:28:20 54° W 20:32:12 10° S
ASTRO E2 2.6 20:25:41 10° W 20:29:41 74° N 20:30:31 52° ENE
Tiangong 1 1.6 20:27:48 10° NW 20:29:46 42° NW 20:29:46 42° NW
Cosmos 2219 Rocket 4.2 20:28:48 10° NNE 20:29:17 11° NNE 20:29:17 11° NNE
Cosmos 1048 Rocket 3.8 20:26:59 10° S 20:32:07 73° ESE 20:37:13 10° NNE
Thor Agena Rocket 3.8 20:29:57 10° N 20:34:59 66° WNW 20:39:58 10° SSW
Cosmos 1908 4.1 20:31:48 10° SSW 20:35:37 52° W 20:39:28 10° N
Iridium 4 Rocket 3.6 20:32:21 10° S 20:37:34 88° W 20:43:15 10° N
SL-16 R/B 3.7 20:35:49 10° NW 20:41:00 37° WSW 20:46:09 10° S
Cosmos 2237 4.4 20:36:59 10° N 20:42:30 47° ENE 20:42:59 46° E
H-2A R/B 2.6 20:43:00 80° NE 20:43:00 80° NE 20:46:49 10° N
Cosmos 1420 Rocket 4.0 20:38:58 10° N 20:44:09 53° ENE 20:44:27 52° E
Cosmos 2151 4.3 20:41:01 10° NNW 20:45:00 40° W 20:48:58 10° SSW
Cosmos 44 3.1 20:42:08 10° SSW 20:46:33 76° WNW 20:47:52 44° NNE
Delta 2 Rocket 4.2 20:44:58 10° WNW 20:47:45 32° NNW 20:47:45 32° NNW
Cosmos 1726 3.5 20:45:45 10° S 20:47:40 29° S 20:47:40 29° S
APEX 4.0 20:47:24 10° SW 20:50:57 42° WNW 20:51:17 41° NW
Cosmos 2221 3.8 20:50:42 10° SSW 20:54:43 40° W 20:58:48 10° N
Cosmos 44 Rocket 3.6 20:52:26 10° SW 20:57:06 61° WNW 20:58:42 38° N
ISS -1.4 20:57:41 10° WNW 21:00:09 20° SW 21:00:17 20° SW
Milstar 3 Cent rocket 4.0 20:58:10 10° W 21:04:48 26° SW 21:07:22 19° S
Cosmos 1315 Rocket 4.5 21:05:32 10° NNW 21:09:14 34° W 21:12:45 11° SSW
Cosmos 921 Rocket 3.8 21:07:51 10° NNW 21:11:49 50° W 21:11:49 50° W
COSMOS 2428 3.6 21:12:54 10° NNW 21:16:20 37° N 21:16:20 37° N
Cosmos 2333 Rocket 4.3 21:17:01 10° N 21:18:02 15° N 21:18:02 15° N
Cosmos 2219 4.1 21:18:26 10° SW 21:23:55 46° WNW 21:27:40 20° N
RESURS DK-1 4.3 21:20:53 10° NW 21:23:04 26° WNW 21:23:04 26° WNW
Cosmos 2360 Rocket 3.3 21:20:01 10° NW 21:25:17 41° WSW 21:28:04 24° SSW
Atlas Centaur 2 3.3 21:43:39 10° W 21:47:12 42° W 21:47:12 42° W
CZ-4C R/B 4.1 21:53:37 10° WSW 21:57:35 23° NW 21:57:35 23° NW
Centaur D AC-28 4.5 22:29:05 10° WSW 23:06:25 16° E 23:30:00 10° E
